User: anonymous   Login
Location: Croydon
(51.3762°N, 0.0982°W)
Time: 21:29:28
(UTC+01:00)
Language:

KKS-1 - Orbit

View from above orbital plane
View from above orbital plane
View from above satellite
View from above satellite

Ground track
Ground track

The orbit data is extracted from the following two-line orbital elements,

1 33499U 09002H   19111.89443858 +.00000101 +00000-0 +22910-4 0  9991
2 33499 098.3539 308.7457 0009947 037.2193 322.9703 14.75425299550278
Epoch (UTC): 21 April 2019 21:27:59
Eccentricity: 0.0009947
inclination: 98.3539°
perigee height: 637 km
apogee height: 651 km
right ascension of ascending node: 308.7457°
argument of perigee: 37.2193°
revolutions per day: 14.75425299
mean anomaly at epoch: 322.9703°
orbit number at epoch: 55027

The dashed part of the orbit path shows where the satellite is in the earth's shadow,  

DLR